Powrót do katalogu

DELTA 1 DEB

AktywnyPO
NORAD 21283·DEBRIS·🇺🇸 United States

Wystrzelony Jun 12, 1975 z Vandenberg Space Force Base

Loading…

Następne Przeloty (najbliższe 24 godziny)

TLE

ŚwieżeSource: Space-Track

Epoka: Sep 14, 2026, 11:40 UTC

1 21283U 75052U   26257.48622520 -.00000164  00000-0 -38013-3 0  9997
2 21283  99.7934 342.4117 0243096  61.6503 312.5227 12.97993543674355

Śledź DELTA 1 DEB w czasie rzeczywistym z AllMySat

Download on the App Store